Location: Acton
(51.4942°N, 0.2232°W)
Time: 13:43:11
(UTC+00:00)

CZ-2C R/B - Pass Details

Date: 18 September 2020
Orbit: 785 x 870 km, 98.2° (Epoch: 25 October)

Event Time Altitude Azimuth Distance (km) Brightness Sun altitude
Rises 19:15:47 0° 18° (NNE) 3,408 5.8 -11.3°
Reaches altitude 10° 19:18:16 10° 25° (NNE) 2,481 5.1 -11.6°
Maximum altitude 19:23:32 44° 97° (E) 1,181 3.0 -12.4°
Drops below altitude 10° 19:28:50 10° 169° (S) 2,503 4.9 -13.2°
Sets 19:31:20 0° 176° (S) 3,441 5.6 -13.6°
